User: anonymous   Login
Location: Jabiru
(12.6667°S, 132.8333°E)
Time: 06:39:11
(UTC+09:30)
Language:

KAITUO 1B - Orbit

View from above orbital plane
View from above orbital plane
View from above satellite
View from above satellite

Ground track
Ground track

The orbit data is extracted from the following two-line orbital elements,

1 40912U 15049P   19319.56961797  .00001176  00000-0  57898-4 0  9994
2 40912  97.4505 325.0090 0015347  16.0400 101.3387 15.19875327230071
Epoch (UTC): 15 November 2019 13:40:14
Eccentricity: 0.0015347
inclination: 97.4505°
perigee height: 495 km
apogee height: 517 km
right ascension of ascending node: 325.0090°
argument of perigee: 16.0400°
revolutions per day: 15.19875327
mean anomaly at epoch: 101.3387°
orbit number at epoch: 23007

The dashed part of the orbit path shows where the satellite is in the earth's shadow,  

DLR